Location: Soapstone Prairie Natural Area
(40.9437°N, 105.0829°W)
Time: 07:27:12
(UTC-07:00)

ISS - Visible Passes

Search period start: 19 December 2014 00:00
Search period end: 29 December 2014 00:00
Orbit: 404 x 415 km, 51.6° (Epoch: 19 December)

Date Brightness Start Highest point End Pass type
(mag) Time Alt. Az. Time Alt. Az. Time Alt. Az.
19 Dec -1.0 17:32:12 10° NNW 17:33:50 13° N 17:35:07 11° NNE visible
20 Dec -1.1 18:17:55 10° NNW 18:19:15 16° N 18:19:15 16° N visible
21 Dec -1.3 17:27:14 10° NNW 17:29:17 15° NNE 17:30:40 13° NE visible
21 Dec -0.2 19:03:17 10° NW 19:03:26 11° NW 19:03:26 11° NW visible
22 Dec -2.1 18:12:33 10° NW 18:14:54 28° N 18:14:54 28° N visible
23 Dec -1.8 17:21:48 10° NNW 17:24:26 22° NNE 17:26:27 13° ENE visible
23 Dec -0.9 18:58:00 10° WNW 18:59:14 21° WNW 18:59:14 21° WNW visible
24 Dec -3.4 18:07:02 10° NW 18:10:18 64° NE 18:10:57 49° E visible
25 Dec -2.7 17:16:07 10° NW 17:19:13 37° NNE 17:22:17 10° E visible
25 Dec -1.2 18:52:53 10° WNW 18:55:40 25° SW 18:55:42 25° SW visible
26 Dec -2.4 18:01:31 10° WNW 18:04:42 49° SW 18:07:51 10° SE visible
27 Dec -3.3 17:10:19 10° NW 17:13:36 87° NE 17:16:52 10° SE visible
27 Dec 0.3 18:49:27 10° SW 18:49:40 10° SW 18:49:53 10° SW visible
28 Dec -0.4 17:56:17 10° W 17:58:42 19° SW 18:01:05 10° S visible
